AO-07 1 07530U 74089B 16314.92918495 -.00000016 00000-0 17532-3 0 9994 2 07530 101.5969 282.2425 0012346 028.7906 349.9863 12.53624155921155 FO-29 1 24278U 96046B 16314.69505623 -.00000044 00000-0 -86259-5 0 9994 2 24278 98.5827 220.8565 0350282 185.6978 174.0128 13.53071608999190 RS-22 1 27939U 03042A 16315.78762860 .00000167 00000-0 38579-4 0 9999 2 27939 97.9090 102.0012 0012706 193.8684 299.5092 14.66483845701303 AO-73 1 39444U 13066AE 16315.69074941 .00000470 00000-0 65341-4 0 9990 2 39444 97.6631 2.9457 0057274 261.5980 97.8737 14.81245203159265 EO-79 1 40025U 14033R 16315.77871245 .00000556 00000-0 66367-4 0 9997 2 40025 97.9190 221.1205 0011556 307.5528 52.4638 14.88206067130003 XW-2A 1 40903U 15049E 16315.79221681 .00003297 00000-0 91669-4 0 9993 2 40903 97.4395 332.7710 0014645 336.5396 23.5179 15.37503721 64071 XW-2C 1 40906U 15049H 16315.78245927 .00001201 00000-0 69535-4 0 9994 2 40906 97.4546 319.7504 0013891 248.7924 111.1824 15.14045755 63186 LILACSAT-2 1 40908U 15049K 16315.83666532 .00000745 00000-0 46013-4 0 9999 2 40908 97.4613 319.5789 0014805 242.6718 117.3006 15.12820980 63152 UO-11 1 14781U 84021B 16315.73978426 .00000160 00000-0 26142-4 0 9994 2 14781 97.7307 3.1086 0008332 185.5894 174.5228 14.82823393757977 LO-19 1 20442U 90005G 16315.36375867 .00000021 00000-0 23542-4 0 9990 2 20442 98.5548 248.3353 0012917 75.4227 284.8388 14.32837738400289 AO-27 1 22825U 93061C 16315.46524636 .00000022 00000-0 26115-4 0 9993 2 22825 98.7800 272.7550 0007379 248.2877 111.7520 14.29975815206146 IO-26 1 22826U 93061D 16314.91677016 .00000030 00000-0 29112-4 0 9993 2 22826 098.7742 272.3093 0007954 239.8775 120.1619 14.30302377205985 GO-32 1 25397U 98043D 16314.91027907 .00000004 00000-0 20433-4 0 9990 2 25397 098.5835 256.1722 0000288 334.9785 025.1380 14.23607809952373 NO-44 1 26931U 01043C 16315.19144790 -.00000010 00000-0 27858-4 0 9996 2 26931 67.0508 296.2214 0005555 274.8493 85.1973 14.30433986789022 SO-50 1 27607U 02058C 16315.72928905 .00000253 00000-0 36490-4 0 9991 2 27607 64.5560 73.0968 0050877 182.2492 177.8879 14.75243409746887 CO-55 1 27844U 03031E 16315.81120640 .00000107 00000-0 68259-4 0 9992 2 27844 98.6926 321.9941 0008688 257.7981 102.2224 14.21992607693287 CO-57 1 27848U 03031J 16315.47073519 .00000081 00000-0 57023-4 0 9998 2 27848 98.7022 321.8203 0008569 268.8499 91.1696 14.21613562693126 CO-65 1 32785U 08021C 16314.85833967 .00000365 00000-0 45710-4 0 9995 2 32785 97.5889 342.9127 0013483 168.6003 191.5522 14.87722145462282 PRISM 1 33493U 09002B 16315.63903454 .00000559 00000-0 56446-4 0 9991 2 33493 98.1944 182.4927 0016706 82.4678 277.8440 14.95279843423112 TISAT-1 1 36799U 10035E 16315.32168350 .00000761 00000-0 84798-4 0 9991 2 36799 98.0428 67.9846 0011712 331.1989 28.8580 14.90093670343182 ALMASAT-1 1 38078U 12006B 16314.88315576 .00025209 37475-5 30622-3 0 9998 2 38078 69.4476 357.8477 0356395 251.7513 104.4586 15.11225147251533 DUCHIFAT-1 1 40021U 14033M 16315.73733135 .00000769 00000-0 86512-4 0 9994 2 40021 97.9231 222.5273 0012087 305.1869 54.8215 14.89584942130073 NANOSATCBR1 1 40024U 14033Q 16315.24038028 .00000674 00000-0 77763-4 0 9995 2 40024 97.9199 221.2388 0011392 307.4907 52.5273 14.88954097129964 DTUSAT-2 1 40030U 14033W 16315.25827105 .00000518 00000-0 62726-4 0 9995 2 40030 97.9164 219.9251 0010906 303.3696 56.6476 14.87834943129894 ANTELSAT 1 40034U 14033AA 16315.64139633 .00000428 00000-0 71956-4 0 9999 2 40034 97.8844 199.9777 0057964 276.0039 83.4604 14.73534863128741 MET-2/21 1 22782U 93055A 16314.86053275 -.00000006 00000-0 -18968-4 0 9998 2 22782 82.5509 197.6338 0022012 329.0554 79.4177 13.83794840171364 NOAA-15 1 25338U 98030A 16315.54434074 .00000040 00000-0 35837-4 0 9992 2 25338 98.7850 320.0049 0011531 118.7982 241.4356 14.25762578961845 NOAA-18 1 28654U 05018A 16315.57100453 .00000014 00000-0 33153-4 0 9994 2 28654 99.1958 326.3024 0013786 327.9799 32.0533 14.12313534591399 NOAA-19 1 33591U 09005A 16315.54623639 .00000132 00000-0 96568-4 0 9993 2 33591 99.0606 273.6556 0014142 163.2726 196.8914 14.12124801399795 HUBBLE 1 20580U 90037B 16314.90401620 .00000733 00000-0 34518-4 0 9999 2 20580 28.4710 16.2967 0002674 340.4217 4.9186 15.08583469257135 ISS 1 25544U 98067A 16315.59074410 .00004710 00000-0 72386-4 0 9998 2 25544 51.6416 47.8970 0006970 196.2266 163.9020 15.53576445 27762 CO-58 1 28895U 05043F 16315.43399498 .00000253 00000-0 57649-4 0 9994 2 28895 97.8425 122.1294 0018116 114.3354 245.9743 14.63293470588495 AAUSAT2 1 32788U 08021F 16315.58119270 .00000988 00000-0 98816-4 0 9999 2 32788 97.5872 353.5118 0013194 136.8832 223.3424 14.93531263463047 DO-64 1 32789U 08021G 16315.20394528 .00001529 00000-0 11475-3 0 9997 2 32789 97.5891 11.8077 0014445 122.9728 237.2888 15.04019612463946 CO-66 1 32791U 08021J 16315.13069657 .00000447 00000-0 51804-4 0 9993 2 32791 97.5886 346.8290 0014204 155.9218 204.2667 14.89985632462522 RS-30 1 32953U 08025A 16315.68635094 .00000013 00000-0 24457-4 0 9994 2 32953 82.5061 15.5458 0019457 45.8569 314.4106 12.43072578384279 JUGNU 1 37839U 11058B 16315.27530869 .00000338 00000-0 38583-4 0 9996 2 37839 19.9626 337.8181 0018746 290.8096 355.1889 14.12561820262702 SRMSAT 1 37841U 11058D 16315.48889453 .00000308 00000-0 24065-4 0 9995 2 37841 19.9730 13.7068 0011672 198.2598 284.8824 14.10557668262366 AO-71 1 37854U 11061E 16314.79568119 .00001704 00000-0 10041-3 0 9998 2 37854 101.7005 070.9250 0170374 003.8467 356.4009 15.03111455273517 HRBE 1 37855U 11061F 16315.25196516 .00001871 00000-0 10734-3 0 9993 2 37855 101.7128 69.5757 0183743 7.7087 352.6879 15.02054845273910 HORYU-2 1 38340U 12025D 16315.21543687 .00000333 00000-0 57415-4 0 9995 2 38340 98.3673 305.5680 0010434 268.5910 91.4102 14.75178547241009 RS-40 1 38735U 12041C 16315.76662551 .00000024 00000-0 10469-3 0 9997 2 38735 82.4738 100.3816 0017401 142.8487 217.3800 12.42574124194575 BEESAT-3 1 39134U 13015E 16315.72701045 .00000468 00000-0 23515-4 0 9990 2 39134 64.8716 211.0417 0018932 300.7043 59.2713 15.16842266196330 BEESAT-2 1 39136U 13015G 16315.70427082 .00001973 00000-0 10655-3 0 9998 2 39136 64.8716 218.9170 0019016 308.6352 51.3565 15.14322193196189 ZACUBE-1 1 39417U 13066B 16314.79452605 .00000346 00000-0 50673-4 0 9991 2 39417 97.6619 1.3096 0058060 267.1368 92.3200 14.80543915160312 TRITON-1 1 39427U 13066M 16315.50603458 .00000338 00000-0 62655-4 0 9990 2 39427 97.6545 339.3729 0113780 329.7151 29.7511 14.67315992158979 GOMX-1 1 39430U 13066Q 16315.71031531 .00000336 00000-0 70255-4 0 9997 2 39430 97.6654 325.4807 0152942 13.3182 347.1942 14.58722190158089 LO-74 1 39440U 13066AA 16315.18365667 .00000304 00000-0 50053-4 0 9998 2 39440 97.6567 352.6444 0079572 290.9557 68.3151 14.75296905159802 SPROUT 1 39770U 14029E 16315.05434484 .00001153 00000-0 13883-3 0 9996 2 39770 97.8732 50.6921 0008411 333.0247 27.0497 14.85785370133591 EO-80 1 40032U 14033Y 16315.69439093 .00000533 00000-0 64460-4 0 9994 2 40032 97.9171 220.3689 0010869 302.0093 58.0066 14.87770233129959 VELOX-1 1 40057U 14034E 16315.68522298 .00000540 00000-0 84350-4 0 9999 2 40057 98.1918 46.6777 0012004 43.0439 317.1709 14.76904701127503 DAURIA DX 1 1 40071U 14037C 16315.69644515 .00000238 00000-0 38226-4 0 9991 2 40071 98.3315 52.2608 0009370 41.4643 318.7283 14.80913778126635 UKUBE-1 1 40074U 14037F 16315.80998940 .00000563 00000-0 75981-4 0 9991 2 40074 98.3376 55.1584 0005561 45.8229 314.3423 14.83276848126806 HODOYOSHI-1 1 40299U 14070B 16315.73489139 .00001094 00000-0 51223-4 0 9997 2 40299 97.4210 35.6597 0014411 132.9186 22.2185 15.21773392111716 CHUBUSAT-1 1 40300U 14070C 16315.69238002 .00001321 00000-0 63584-4 0 9992 2 40300 97.4153 33.4307 0021675 142.2886 10.2466 15.20326617111588 QSAT-EOS 1 40301U 14070D 16315.69992578 .00002621 00000-0 11627-3 0 9992 2 40301 97.4097 32.9902 0029480 141.8714 9.5066 15.22084946111583 FIREBIRD FU3 1 40377U 15003B 16315.60769445 .00002396 00000-0 10853-3 0 9997 2 40377 99.1017 90.4919 0140311 6.3641 353.9326 15.13887159 97928 FIREBIRD FU4 1 40378U 15003C 16315.33843606 .00002404 00000-0 10874-3 0 9993 2 40378 99.1019 90.1922 0140517 7.1792 353.1402 15.13905085 97887 GRIFEX 1 40379U 15003D 16315.59101739 .00001785 00000-0 85892-4 0 9990 2 40379 99.1031 89.1521 0145474 11.3723 349.0730 15.11823602 97849 NO-84 1 40654U 15025D 16315.51141629 .00009533 00000-0 19062-3 0 02812 2 40654 054.9928 130.7871 0198799 078.0581 284.2654 15.29121223046398 NO-83 1 40655U 15025E 16315.46452896 .00016123 00000-0 27910-3 0 03116 2 40655 054.9827 118.8797 0175158 084.2681 277.8370 15.35902319046534 DEORBITSAIL 1 40719U 15032E 16315.75351002 .00000680 00000-0 10648-3 0 9997 2 40719 97.9999 205.9701 0017516 122.7307 237.5594 14.75784273 72104 NUDT-PHONESAT 1 40900U 15049B 16315.75758631 .00003623 00000-0 18098-3 0 9993 2 40900 97.4453 320.9996 0012847 267.0626 92.9138 15.18045188 63301 XW-2D 1 40907U 15049J 16315.77839714 .00001277 00000-0 73609-4 0 9997 2 40907 97.4513 319.5711 0013270 246.7947 113.1887 15.14116283 63189 XW-2F 1 40910U 15049M 16315.75916738 .00001848 00000-0 10296-3 0 9997 2 40910 97.4540 319.9143 0014200 245.4339 114.5413 15.14771765 63071 XW-2B 1 40911U 15049N 16315.77989129 .00001257 00000-0 72529-4 0 9996 2 40911 97.4560 319.8313 0013167 247.0474 112.9369 15.14090054 63089 DCBB 1 40912U 15049P 16315.85603102 .00001580 00000-0 83702-4 0 9994 2 40912 97.4532 321.2123 0014461 240.1375 243.8421 15.16784506 63185 TW-1C 1 40926U 15051B 16315.81003215 .00007029 00000-0 18262-3 0 9999 2 40926 97.2590 351.2489 0011503 237.1312 210.5483 15.39196529 63299 TW-1A 1 40928U 15051D 16315.73755872 .00002797 00000-0 86079-4 0 9994 2 40928 97.2546 349.3991 0011646 263.7292 190.7238 15.34438361 63181 IO-86 1 40931U 15052B 16313.70181752 .00000855 00000-0 30243-4 0 9999 2 40931 5.9966 4.7336 0013532 2.0933 357.9102 14.76496397 60322 GomX-3 1 40949U 98067HA 16292.18357804 .08527750 12374-4 77882-3 0 9992 2 40949 51.6055 106.7696 0006699 286.1344 73.8944 16.38002265 59645 LQSat 1 40958U 15057A 16315.71026539 .00000100 00000-0 23366-4 0 9998 2 40958 98.0018 28.5793 0019373 47.8266 312.4585 14.72920397 58953 AO-85 1 40967U 15058D 16315.56059314 .00000284 00000-0 50803-4 0 03105 2 40967 064.7766 161.9584 0185963 157.3863 203.5560 14.75222569044869 ATHENOXAT-1 1 41168U 15077C 16315.80673124 .00002561 00000-0 11069-3 0 9991 2 41168 14.9966 323.7767 0012219 230.4004 316.6260 15.10719465 49950 ChubuSat-2 1 41338U 16012B 16315.50337168 .00000585 00000-0 39603-4 0 9991 2 41338 31.0037 60.9484 0013958 54.6193 305.5745 14.99562851 40137 ChubuSat-3 1 41339U 16012C 16315.72868727 .00000484 00000-0 31360-4 0 9996 2 41339 31.0122 59.0273 0013788 62.1871 298.0161 14.99781205 40141 Horyu-4 1 41340U 16012D 16314.65723650 .00000844 00000-0 58925-4 0 9990 2 41340 31.0055 64.6660 0014301 58.5240 301.6791 15.00302912 40014 OUFTI-1 1 41458U 16025C 16315.49301999 .00001762 00000-0 10051-3 0 9992 2 41458 98.2091 334.4169 0177120 300.1267 58.2506 15.02073278 29732 e-st@r-II 1 41459U 16025D 16315.09699433 .00001502 00000-0 86704-4 0 9993 2 41459 98.2111 333.9831 0176946 301.7013 56.7054 15.01997870 29673 AAUSAT4 1 41460U 16025E 16315.72838493 .00003635 00000-0 20414-3 0 9990 2 41460 98.2031 334.6979 0170487 298.1851 60.2220 15.02522156 29778 MinXSS 1 41474U 98067HU 16315.69272440 .00056616 00000-0 51878-3 0 9996 2 41474 51.6434 39.5930 0003582 339.4123 20.6729 15.67198672 27824 CADRE 1 41475U 98067HV 16315.64411858 .00036597 00000-0 20554-3 0 9993 2 41475 51.6383 35.4412 0006181 354.8126 5.3333 15.78502557 27879 NODES 1 1 41477U 98067HX 16315.78394360 .00030394 00000-0 32165-3 0 9998 2 41477 51.6386 40.9165 0002989 330.6395 29.4432 15.63874975 27723 NODES 2 1 41478U 98067HY 16315.47062052 .00028954 00000-0 30830-3 0 9991 2 41478 51.6386 42.5723 0002882 329.6771 30.4057 15.63745455 27679 LO-87 1 41557U 16033B 16315.83225396 .00001965 00000-0 78746-4 0 9996 2 41557 97.4845 29.2332 0016074 59.2673 75.4859 15.26138854 25112 NuSat2 1 41558U 16033C 16315.78422236 .00001959 00000-0 78830-4 0 9990 2 41558 97.4870 29.2042 0015682 58.6367 90.1748 15.26005454 25105 Lapan A3 1 41603U 16040E 16315.72033880 .00000268 00000-0 15988-4 0 9993 2 41603 97.4940 13.9202 0015085 112.2694 43.8204 15.19191082 21483 Swayam 1 41607U 16040J 16315.21490732 .00002544 00000-0 12179-3 0 9991 2 41607 97.4923 13.4143 0016255 118.8381 241.4488 15.19763717 21336 Pratham 1 41783U 16059A 16315.61551202 .00000149 00000-0 38406-4 0 9991 2 41783 98.1994 12.8809 0034486 124.2859 236.1613 14.62778335 6654 OBJECT B 1 41784U 16059B 16315.80970021 .00000139 00000-0 36212-4 0 9999 2 41784 98.2008 13.1010 0032686 123.5602 236.8689 14.63136514 6645 OBJECT C 1 41785U 16059C 16315.80709644 -.00000344 00000-0 00000 0 0 9991 2 41785 98.1989 13.1051 0032535 123.3438 237.1378 14.63211430 6646 OBJECT D 1 41786U 16059D 16315.77202205 .00000116 00000-0 29889-4 0 9996 2 41786 98.2262 13.4314 0001081 75.7234 284.4085 14.66301954 6658 OBJECT E 1 41787U 16059E 16315.73117076 .00000062 00000-0 21342-4 0 9990 2 41787 98.1980 13.0432 0031303 123.8622 236.5549 14.63458690 6636 OBJECT F 1 41788U 16059F 16314.76854951 .00000193 00000-0 46297-4 0 9994 2 41788 98.1993 12.0987 0030635 128.6947 231.6994 14.63637846 6491 AlSat 1N 1 41789U 16059G 16315.64695287 .00000192 00000-0 45755-4 0 9995 2 41789 98.1995 12.9982 0029680 119.9990 240.4174 14.63972944 6632 ScatSat 1 41790U 16059H 16315.59786659 .00000064 00000-0 27315-4 0 9995 2 41790 98.0986 8.5092 0012339 97.9279 262.3309 14.50107595 6589 OBJECT J 1 41791U 16059J 16315.19903741 .00000077 00000-0 25487-4 0 9997 2 41791 98.2728 12.5838 0043108 132.2582 228.2288 14.60743901 6571 OBJECT K 1 41792U 16059K 16315.78037369 .00000435 00000-0 91700-4 0 9996 2 41792 98.1999 13.1431 0028472 123.9936 236.3971 14.64094273 6646 /EX
